Previsão horária em Almaly

Hoje, 25 Junho, Sexta-feira

Tempo Temperatura Precipitação Vento Pressão Humidade
00:00 +31°C° 0 mm 3 m/s 760 mmHg 36%
01:00 +30°C° 0 mm 3 m/s 760 mmHg 38%
02:00 +29°C° 0 mm 2 m/s 760 mmHg 40%
03:00 +29°C° 0 mm 2 m/s 760 mmHg 42%
04:00 +30°C° 0 mm 2 m/s 760 mmHg 40%
05:00 +31°C° 0 mm 2 m/s 760 mmHg 38%
06:00 +32°C° 0 mm 1 m/s 760 mmHg 35%
07:00 +34°C° 0 mm 1 m/s 760 mmHg 32%
08:00 +35°C° 0 mm 1 m/s 760 mmHg 29%
09:00 +37°C° 0 mm 1 m/s 760 mmHg 25%
10:00 +39°C° 0 mm 2 m/s 759 mmHg 22%
11:00 +40°C° 0 mm 2 m/s 759 mmHg 20%
12:00 +42°C° 0 mm 3 m/s 759 mmHg 18%
13:00 +42°C° 0 mm 4 m/s 758 mmHg 17%
14:00 +42°C° 0 mm 5 m/s 758 mmHg 16%
15:00 +42°C° 0 mm 6 m/s 758 mmHg 16%
16:00 +42°C° 0 mm 6 m/s 758 mmHg 18%
17:00 +41°C° 0 mm 6 m/s 758 mmHg 19%
18:00 +40°C° 0 mm 6 m/s 758 mmHg 21%
19:00 +36°C° 0.1 mm 5 m/s 758 mmHg 27%
20:00 +34°C° 0.1 mm 5 m/s 758 mmHg 34%
21:00 +32°C° 0.1 mm 5 m/s 758 mmHg 40%
22:00 +30°C° 0 mm 4 m/s 758 mmHg 42%
23:00 +30°C° 0 mm 3 m/s 758 mmHg 43%

Amanhã, 26 Junho, Sábado

Tempo Temperatura Precipitação Vento Pressão Humidade
00:00 +29°C° 0 mm 1 m/s 758 mmHg 45%
01:00 +29°C° 0 mm 2 m/s 759 mmHg 45%
02:00 +28°C° 0 mm 2 m/s 759 mmHg 46%
03:00 +28°C° 0 mm 2 m/s 759 mmHg 46%
04:00 +29°C° 0 mm 3 m/s 759 mmHg 44%
05:00 +30°C° 0 mm 3 m/s 759 mmHg 41%
06:00 +31°C° 0 mm 3 m/s 759 mmHg 39%
07:00 +34°C° 0 mm 4 m/s 759 mmHg 36%
08:00 +35°C° 0 mm 4 m/s 759 mmHg 33%
09:00 +37°C° 0 mm 5 m/s 759 mmHg 31%
10:00 +39°C° 0 mm 5 m/s 758 mmHg 29%
11:00 +38°C° 0 mm 4 m/s 758 mmHg 27%
12:00 +40°C° 0 mm 4 m/s 758 mmHg 24%
13:00 +41°C° 0 mm 4 m/s 757 mmHg 23%
14:00 +40°C° 0 mm 3 m/s 757 mmHg 22%
15:00 +42°C° 0 mm 3 m/s 757 mmHg 21%
16:00 +40°C° 0 mm 3 m/s 757 mmHg 21%
17:00 +40°C° 0 mm 3 m/s 756 mmHg 21%
18:00 +40°C° 0 mm 3 m/s 756 mmHg 20%
19:00 +40°C° 0 mm 4 m/s 756 mmHg 22%
20:00 +37°C° 0 mm 4 m/s 757 mmHg 24%
21:00 +36°C° 0 mm 4 m/s 757 mmHg 26%
22:00 +35°C° 0 mm 4 m/s 757 mmHg 31%
23:00 +34°C° 0 mm 4 m/s 757 mmHg 35%

Depois de amanhã, 27 Junho, Domingo

Tempo Temperatura Precipitação Vento Pressão Humidade
00:00 +32°C° 0 mm 4 m/s 757 mmHg 39%
01:00 +31°C° 0 mm 3 m/s 758 mmHg 40%
02:00 +30°C° 0 mm 3 m/s 758 mmHg 40%
03:00 +29°C° 0 mm 3 m/s 758 mmHg 41%
04:00 +30°C° 0 mm 3 m/s 758 mmHg 40%
05:00 +31°C° 0 mm 3 m/s 758 mmHg 38%
06:00 +33°C° 0 mm 3 m/s 758 mmHg 37%
07:00 +35°C° 0 mm 4 m/s 758 mmHg 33%
08:00 +36°C° 0 mm 4 m/s 758 mmHg 28%
09:00 +38°C° 0 mm 4 m/s 758 mmHg 23%
10:00 +40°C° 0 mm 4 m/s 758 mmHg 21%
11:00 +40°C° 0 mm 3 m/s 758 mmHg 19%
12:00 +42°C° 0 mm 3 m/s 758 mmHg 17%
13:00 +42°C° 0 mm 3 m/s 758 mmHg 17%
14:00 +42°C° 0 mm 3 m/s 758 mmHg 16%
15:00 +43°C° 0 mm 4 m/s 757 mmHg 16%
16:00 +42°C° 0 mm 3 m/s 757 mmHg 16%
17:00 +42°C° 0 mm 3 m/s 757 mmHg 17%
18:00 +42°C° 0 mm 3 m/s 757 mmHg 18%
19:00 +38°C° 0 mm 4 m/s 757 mmHg 24%
20:00 +36°C° 0 mm 5 m/s 758 mmHg 30%
21:00 +34°C° 0 mm 6 m/s 758 mmHg 36%
22:00 +32°C° 0 mm 6 m/s 758 mmHg 42%
23:00 +30°C° 0 mm 5 m/s 758 mmHg 48%

28 Junho, Segunda-feira

Tempo Temperatura Precipitação Vento Pressão Humidade
00:00 +29°C° 0 mm 5 m/s 758 mmHg 54%
01:00 +29°C° 0 mm 5 m/s 758 mmHg 53%
02:00 +29°C° 0 mm 4 m/s 758 mmHg 52%
03:00 +29°C° 0 mm 4 m/s 758 mmHg 51%
04:00 +30°C° 0 mm 4 m/s 758 mmHg 46%
05:00 +32°C° 0 mm 4 m/s 758 mmHg 42%
06:00 +33°C° 0 mm 4 m/s 758 mmHg 37%
07:00 +35°C° 0 mm 4 m/s 758 mmHg 33%
08:00 +37°C° 0 mm 4 m/s 758 mmHg 28%
09:00 +40°C° 0 mm 4 m/s 758 mmHg 24%
10:00 +40°C° 0 mm 3 m/s 758 mmHg 22%
11:00 +42°C° 0 mm 3 m/s 757 mmHg 20%
12:00 +42°C° 0 mm 2 m/s 757 mmHg 17%
13:00 +42°C° 0 mm 2 m/s 757 mmHg 17%
14:00 +43°C° 0 mm 2 m/s 757 mmHg 16%
15:00 +43°C° 0 mm 2 m/s 756 mmHg 16%
16:00 +43°C° 0 mm 4 m/s 756 mmHg 18%
17:00 +42°C° 0 mm 6 m/s 756 mmHg 20%
18:00 +40°C° 0 mm 8 m/s 756 mmHg 22%
19:00 +39°C° 0.1 mm 6 m/s 756 mmHg 25%
20:00 +36°C° 0.1 mm 5 m/s 756 mmHg 29%
21:00 +35°C° 0.1 mm 3 m/s 757 mmHg 33%
22:00 +34°C° 0 mm 3 m/s 757 mmHg 33%
23:00 +34°C° 0 mm 2 m/s 756 mmHg 34%

29 Junho, Terça-feira

Tempo Temperatura Precipitação Vento Pressão Humidade
00:00 +32°C° 0 mm 1 m/s 756 mmHg 34%
01:00 +32°C° 0 mm 2 m/s 756 mmHg 34%
02:00 +32°C° 0 mm 2 m/s 756 mmHg 33%
03:00 +33°C° 0 mm 3 m/s 756 mmHg 33%
04:00 +34°C° 0 mm 3 m/s 756 mmHg 31%
05:00 +35°C° 0 mm 3 m/s 756 mmHg 29%
06:00 +36°C° 0 mm 2 m/s 756 mmHg 28%
07:00 +38°C° 0 mm 3 m/s 756 mmHg 25%
08:00 +39°C° 0 mm 3 m/s 756 mmHg 22%
09:00 +42°C° 0 mm 3 m/s 756 mmHg 19%
10:00 +43°C° 0 mm 3 m/s 756 mmHg 17%
11:00 +44°C° 0 mm 3 m/s 755 mmHg 16%
12:00 +47°C° 0 mm 4 m/s 755 mmHg 14%
13:00 +47°C° 0 mm 4 m/s 755 mmHg 13%
14:00 +47°C° 0 mm 4 m/s 754 mmHg 12%
15:00 +48°C° 0 mm 4 m/s 754 mmHg 12%
16:00 +45°C° 0 mm 4 m/s 754 mmHg 13%
17:00 +45°C° 0 mm 5 m/s 754 mmHg 14%
18:00 +44°C° 0 mm 6 m/s 753 mmHg 16%
19:00 +42°C° 0 mm 6 m/s 754 mmHg 18%
20:00 +40°C° 0 mm 6 m/s 754 mmHg 21%
21:00 +38°C° 0 mm 6 m/s 754 mmHg 24%
22:00 +36°C° 0 mm 6 m/s 754 mmHg 26%
23:00 +35°C° 0 mm 6 m/s 754 mmHg 28%

30 Junho, Quarta-feira

Tempo Temperatura Precipitação Vento Pressão Humidade
00:00 +35°C° 0 mm 6 m/s 754 mmHg 30%
01:00 +33°C° 0 mm 5 m/s 754 mmHg 34%
02:00 +32°C° 0 mm 4 m/s 754 mmHg 39%
03:00 +29°C° 0 mm 3 m/s 754 mmHg 43%
04:00 +30°C° 0 mm 3 m/s 755 mmHg 44%
05:00 +30°C° 0 mm 3 m/s 755 mmHg 44%
06:00 +31°C° 0 mm 3 m/s 755 mmHg 45%
07:00 +34°C° 0 mm 3 m/s 755 mmHg 39%
08:00 +36°C° 0 mm 2 m/s 755 mmHg 33%
09:00 +38°C° 0 mm 2 m/s 755 mmHg 27%
10:00 +39°C° 0 mm 3 m/s 755 mmHg 25%
11:00 +42°C° 0 mm 3 m/s 755 mmHg 23%
12:00 +43°C° 0 mm 4 m/s 755 mmHg 21%
13:00 +43°C° 0 mm 4 m/s 754 mmHg 20%
14:00 +44°C° 0 mm 4 m/s 754 mmHg 20%
15:00 +44°C° 0 mm 4 m/s 754 mmHg 19%
16:00 +44°C° 0 mm 4 m/s 754 mmHg 20%
17:00 +43°C° 0 mm 4 m/s 754 mmHg 21%
18:00 +43°C° 0 mm 5 m/s 754 mmHg 22%
19:00 +41°C° 0 mm 5 m/s 754 mmHg 26%
20:00 +39°C° 0 mm 5 m/s 755 mmHg 31%
21:00 +36°C° 0 mm 6 m/s 755 mmHg 35%
22:00 +35°C° 0 mm 6 m/s 755 mmHg 39%
23:00 +34°C° 0 mm 6 m/s 755 mmHg 43%
Mostrar mais